Regional Weather Roundup
Issued by NWS Portland, ME

Home | Current Version | Previous Version | Text Only | Print | Product List | Glossary On
Versions: 1 2 3 4 5 6 7 8 9 10 11 12 13 14 15 16 17 18 19 20 21 22 23 24 25 26 27 28 29 30 31 32 33 34 35 36 37 38 39 40 41 42 43 44 45 46 47 48 49 50
270
ASUS41 KGYX 271310
RWRGYX
WEATHER ROUNDUP FOR MAINE AND NEW HAMPSHIRE
NATIONAL WEATHER SERVICE GRAY ME
900 AM EDT THU APR 27 2017

MEZ002-005-006-010-012-015-018-020-021-024-026-027-029-271400-
MAINE

CITY           SKY/WX    TMP DP  RH WIND       PRES   REMARKS
PORTLAND       CLOUDY    51  50  96 E10       29.93F FOG
SANFORD        CLOUDY    53  52  96 NE5       29.93R FOG
BAR HARBOR     CLOUDY    51  50  96 E3        29.97F
WISCASSET      CLOUDY    53  52  96 VRB3      29.96R FOG
ROCKLAND       CLOUDY    51  50  96 NE7       29.94F
FRYEBURG       CLOUDY    55  55 100 CALM      29.94R
LEWISTONAUBURN CLOUDY    54  54 100 E6        29.93F
AUGUSTA        FOG       53  52  96 E5        29.94S VSB 1/2
WATERVILLE     CLOUDY    54  54 100 CALM      29.92S
BANGOR         CLOUDY    57  55  93 SE5       29.96R
GREENVILLE       N/A     52  52 100 SE5       29.93R
MILLINOCKET    FOG       54  54 100 E7        29.98S VSB 1/4
HOULTON        CLOUDY    57  57 100 VRB5      29.98R
PRESQUE ISLE   CLOUDY    56  55  97 SE6       29.99S
FRENCHVILLE    FOG       51  49  92 E9        29.98S VSB<1/4
CARIBOU        FOG       57  55  93 E3        29.98S VSB 1
$$

NHZ002-005-008-009-011-012-014-271400-
NEW HAMPSHIRE

CITY           SKY/WX    TMP DP  RH WIND       PRES   REMARKS
PORTSMOUTH     CLOUDY    52  52  99 CALM      29.92R FOG
ROCHESTER      CLOUDY    53  52  96 N3        29.92R FOG
NASHUA         CLOUDY    55  54  96 N3        29.94R FOG
MANCHESTER     CLOUDY    56  52  86 NE3       29.92R FOG
CONCORD        CLOUDY    57  54  89 N5        29.93R
LACONIA        CLOUDY    56  53  90 E9        29.93R
PLYMOUTH       CLOUDY    55  54  97 CALM      29.92S
BERLIN         CLOUDY    57  51  80 CALM      29.93R
WHITEFIELD     PTSUNNY   62  52  69 CALM      29.90F
JAFFREY        CLOUDY    55  55 100 CALM      29.93R
KEENE          CLOUDY    56  54  93 CALM      29.92S
LEBANON        CLOUDY    59  55  87 CALM      29.90F
MT WASHINGTON  PTSUNNY   48  46  93 S21         N/A
$$

VTZ005-007-008-271400-
VERMONT

CITY           SKY/WX    TMP DP  RH WIND       PRES   REMARKS
ST JOHNSBURY     N/A     57  54  89 MISG      29.89S
MONTPELIER     CLOUDY    58  55  90 S5        29.94R
BURLINGTON     MOSUNNY   67  56  67 S12       29.85R
$$

MAZ007-012-024-CTZ003-RIZ002-NYZ038-NYZ072-271400-
SOUTHERN NEW ENGLAND AND NY

CITY           SKY/WX    TMP DP  RH WIND       PRES   REMARKS
BOSTON         CLOUDY    53  52  96 W6        29.93R FOG
WORCESTER      FOG       53  52  96 CALM      29.93R VSB 3/4
NANTUCKET      FOG       52  50  93 W5        29.92R VSB 1/4
PROVIDENCE     CLOUDY    58  57  97 N3        29.93R
HARTFORD       CLOUDY    59  56  89 CALM      29.92R
ALBANY         CLOUDY    61  55  81 S8        29.89R
NEW YORK CITY  CLOUDY    61  58  90 S10       29.92R FOG
$$

ANZ081-ANZ082-ANZ150-NHZ014-MEZ023>029-271400-
COASTAL MARINE OBSERVATIONS

STATION/POSITION TIME  TEMP    WIND        PRES    WAVE
                       AIR SEA DIR/SP/G            HT/PER
                 (UTC) (F)     (DEG/KT/KT) (MB)    (FT/S)
MOUNT DESERT ROC 1300   44                 1014.7R
MATINICUS ROCK   1200   44      90/ 15/ 16 1013.1F
ISLE OF SHOALS   1200   45      20/  9/ 10 1012.6R
JEFFREYS LEDGE   1206      44                N/A     6/12
CASHES LEDGE BUO 1150   46 43              1012.7    8/12
GEORGES BANK BUO 1150   51 42              1013.9   11/11
$$

.............KEY..............
   WCI - WIND CHILL
   TC  - TEMPERATURE IN CELSIUS
   VSB - VISIBILITY IN MILES
   HX  - HEAT INDEX
   FAIR- INDICATES FEW OR NO CLOUDS BELOW 12,000 FT, WITH NO
         SIGNIFICANT WEATHER AND/OR OBSTRUCTIONS TO VISIBILITY.






USA.gov is the U.S. government's official web portal to all federal, state and local government web resources and services.